DW4604 Weather Reports


time (UTC)temp
C
wind
direction
speed
KPH
gust
KPH
rain 1hr
cm
rain 24hr
cm
rain mn
cm
humidity
%
barometer
mb
20260504172002 22 0 0.0 0.0 0.00 0.00 0.00 47 1011.0
20260504171501 22 0 0.0 0.0 0.00 0.00 0.00 48 1010.9
20260504171001 22 0 0.0 0.0 0.00 0.00 0.00 45 1010.9
20260504170502 23 0 0.0 0.0 0.00 0.00 0.00 45 1010.9
20260504151002 25 0 0.0 0.0 0.00 0.00 0.00 42 1011.2
20260504150502 25 0 0.0 0.0 0.00 0.00 0.00 40 1011.2
20260504140502 25 0 0.0 0.0 0.00 0.00 0.00 43 1011.8
20260504130502 25 0 0.0 0.0 0.00 0.00 0.00 38 1012.1
20260504110504 24 0 0.0 0.0 0.00 0.00 0.00 41 1013.3
20260504100503 25 0 0.0 0.0 0.00 0.00 0.00 40 1014.1
20260504082003 22 0 0.0 0.0 0.00 0.00 0.00 42 1014.6
20260504081504 22 0 0.0 0.0 0.00 0.00 0.00 43 1014.6
20260504081003 22 0 0.0 0.0 0.00 0.00 0.00 44 1014.6
20260504080504 22 0 0.0 0.0 0.00 0.00 0.00 43 1014.6
20260504050504 11 0 0.0 0.0 0.00 0.00 0.00 68 1014.5
20260504050004 11 0 0.0 0.0 0.00 0.00 0.00 69 1014.5
20260504045505 10 0 0.0 0.0 0.00 0.00 0.00 70 1014.6
20260504045004 10 0 0.0 0.0 0.00 0.00 0.00 72 1014.6
20260504044505 10 0 0.0 0.0 0.00 0.00 0.00 74 1014.5
20260504044004 8 0 0.0 0.0 0.00 0.00 0.00 76 1014.4
20260504043504 8 0 0.0 0.0 0.00 0.00 0.00 78 1014.3
20260504042506 7 0 0.0 0.0 0.00 0.00 0.00 79 1014.2
20260504042004 7 0 0.0 0.0 0.00 0.00 0.00 79 1014.3
20260504041504 6 0 0.0 0.0 0.00 0.00 0.00 79 1014.3
20260504041004 6 0 0.0 0.0 0.00 0.00 0.00 79 1014.3
20260504040504 6 0 0.0 0.0 0.00 0.00 0.00 79 1014.3
20260504040004 6 0 0.0 0.0 0.00 0.00 0.00 79 1014.3
20260504035506 6 0 0.0 0.0 0.00 0.00 0.00 79 1014.2
20260504035005 6 0 0.0 0.0 0.00 0.00 0.00 79 1014.2
20260504034005 6 0 0.0 0.0 0.00 0.00 0.00 78 1014.1
20260504033504 6 0 0.0 0.0 0.00 0.00 0.00 78 1014.2
20260504033004 6 0 0.0 0.0 0.00 0.00 0.00 78 1014.1
20260504032506 6 0 0.0 0.0 0.00 0.00 0.00 78 1014.0
20260504032005 7 0 0.0 0.0 0.00 0.00 0.00 77 1014.0
20260504031006 7 0 0.0 0.0 0.00 0.00 0.00 77 1014.0
20260504030005 7 0 0.0 0.0 0.00 0.00 0.00 77 1014.0
20260504025505 7 0 0.0 0.0 0.00 0.00 0.00 76 1013.9
20260504025004 7 0 0.0 0.0 0.00 0.00 0.00 76 1013.9
20260504024504 7 0 0.0 0.0 0.00 0.00 0.00 76 1013.9
20260504024006 7 0 0.0 0.0 0.00 0.00 0.00 77 1013.9
20260504023506 7 0 0.0 0.0 0.00 0.00 0.00 77 1013.8
20260504023006 7 0 0.0 0.0 0.00 0.00 0.00 77 1013.8
20260504022504 7 0 0.0 0.0 0.00 0.00 0.00 77 1013.8
20260504022005 7 0 0.0 0.0 0.00 0.00 0.00 77 1013.8
20260504021505 7 0 0.0 0.0 0.00 0.00 0.00 77 1013.8
20260504021006 7 0 0.0 0.0 0.00 0.00 0.00 76 1013.9
20260504020504 7 0 0.0 0.0 0.00 0.00 0.00 76 1013.9
20260504020006 7 0 0.0 0.0 0.00 0.00 0.00 75 1013.9
20260504015505 8 0 0.0 0.0 0.00 0.00 0.00 75 1014.0
20260504015005 8 0 0.0 0.0 0.00 0.00 0.00 74 1014.0
20260504014005 8 0 0.0 0.0 0.00 0.00 0.00 72 1014.0
20260504013505 8 0 0.0 0.0 0.00 0.00 0.00 71 1014.0
20260504013006 9 0 0.0 0.0 0.00 0.00 0.00 71 1014.0
20260504012505 9 0 0.0 0.0 0.00 0.00 0.00 69 1014.0
20260504012005 10 0 0.0 0.0 0.00 0.00 0.00 67 1014.0
20260504011505 10 0 0.0 0.0 0.00 0.00 0.00 66 1014.0
20260504011004 11 0 0.0 0.0 0.00 0.00 0.00 66 1014.0
20260504010005 10 0 0.0 0.0 0.00 0.00 0.00 69 1014.0
20260504005506 10 0 0.0 0.0 0.00 0.00 0.00 69 1014.0
20260504005005 9 0 0.0 0.0 0.00 0.00 0.00 70 1014.0
20260504004506 9 0 0.0 0.0 0.00 0.00 0.00 70 1014.0
20260504004006 9 0 0.0 0.0 0.00 0.00 0.00 71 1014.1
20260504003505 9 0 0.0 0.0 0.00 0.00 0.00 72 1014.1
20260504003006 9 0 0.0 0.0 0.00 0.00 0.00 73 1014.1
20260504002507 8 0 0.0 0.0 0.00 0.00 0.00 74 1014.1
20260504002006 8 0 0.0 0.0 0.00 0.00 0.00 75 1014.1
20260504001506 8 0 0.0 0.0 0.00 0.00 0.00 75 1014.2
20260504001005 8 0 0.0 0.0 0.00 0.00 0.00 77 1014.2
20260504000506 8 0 0.0 0.0 0.00 0.00 0.00 77 1014.2
20260504000005 8 0 0.0 0.0 0.00 0.00 0.00 77 1014.2
20260503235506 8 0 0.0 0.0 0.00 0.00 0.00 76 1014.3
20260503235005 8 0 0.0 0.0 0.00 0.00 0.00 76 1014.3
20260503234506 8 0 0.0 0.0 0.00 0.00 0.00 75 1014.3
20260503234006 8 0 0.0 0.0 0.00 0.00 0.00 75 1014.3
20260503233505 8 0 0.0 0.0 0.00 0.00 0.00 74 1014.3
20260503233005 8 0 0.0 0.0 0.00 0.00 0.00 74 1014.3
20260503232506 8 0 0.0 0.0 0.00 0.00 0.00 74 1014.3
20260503232005 8 0 0.0 0.0 0.00 0.00 0.00 73 1014.4
20260503231005 9 0 0.0 0.0 0.00 0.00 0.00 73 1014.5
20260503230505 9 0 0.0 0.0 0.00 0.00 0.00 73 1014.5
20260503230005 9 0 0.0 0.0 0.00 0.00 0.00 72 1014.5
20260503225932 9 0 0.0 0.0 0.00 0.00 0.00 72 1014.5
20260503224932 10 0 0.0 0.0 0.00 0.00 0.00 70 1014.5
20260503224432 10 0 0.0 0.0 0.00 0.00 0.00 69 1014.6
20260503223932 10 0 0.0 0.0 0.00 0.00 0.00 69 1014.6
20260503223432 10 0 0.0 0.0 0.00 0.00 0.00 68 1014.5
20260503222932 11 0 0.0 0.0 0.00 0.00 0.00 66 1014.6
20260503222432 11 0 0.0 0.0 0.00 0.00 0.00 65 1014.6
20260503221932 11 0 0.0 0.0 0.00 0.00 0.00 63 1014.5
20260503221432 11 0 0.0 0.0 0.00 0.00 0.00 63 1014.6
20260503220933 11 0 0.0 0.0 0.00 0.00 0.00 65 1014.6
20260503220432 11 0 0.0 0.0 0.00 0.00 0.00 66 1014.7
20260503215933 11 0 0.0 0.0 0.00 0.00 0.00 67 1014.7
20260503215431 11 0 0.0 0.0 0.00 0.00 0.00 68 1014.6
20260503214433 11 0 0.0 0.0 0.00 0.00 0.00 68 1014.6
20260503213433 11 0 0.0 0.0 0.00 0.00 0.00 68 1014.6
20260503212932 11 0 0.0 0.0 0.00 0.00 0.00 69 1014.6
20260503212434 11 0 0.0 0.0 0.00 0.00 0.00 69 1014.6
20260503211933 11 0 0.0 0.0 0.00 0.00 0.00 70 1014.6
20260503211432 11 0 0.0 0.0 0.00 0.00 0.00 71 1014.5
20260503210931 11 0 0.0 0.0 0.00 0.00 0.00 71 1014.5
20260503210431 11 0 0.0 0.0 0.00 0.00 0.00 72 1014.6
20260503205932 11 0 0.0 0.0 0.00 0.00 0.00 73 1014.7
20260503205433 11 0 0.0 0.0 0.00 0.00 0.00 74 1014.7
20260503204932 11 0 0.0 0.0 0.00 0.00 0.00 74 1014.7
20260503204431 11 0 0.0 0.0 0.00 0.00 0.00 74 1014.7
20260503203933 11 0 0.0 0.0 0.00 0.00 0.00 74 1014.6
20260503203432 11 0 0.0 0.0 0.00 0.00 0.00 74 1014.6
20260503202933 11 0 0.0 0.0 0.00 0.00 0.00 74 1014.6
20260503202432 12 0 0.0 0.0 0.00 0.00 0.00 73 1014.6
20260503201932 12 0 0.0 0.0 0.00 0.00 0.00 72 1014.6
20260503201432 12 0 0.0 0.0 0.00 0.00 0.00 72 1014.5
20260503200932 12 0 0.0 0.0 0.00 0.00 0.00 71 1014.6
20260503200432 12 0 0.0 0.0 0.00 0.00 0.00 70 1014.5
20260503195932 12 0 0.0 0.0 0.00 0.00 0.00 70 1014.5
20260503195432 13 0 0.0 0.0 0.00 0.00 0.00 69 1014.4
20260503194933 13 0 0.0 0.0 0.00 0.00 0.00 68 1014.5
20260503194433 13 0 0.0 0.0 0.00 0.00 0.00 68 1014.4
20260503193932 13 0 0.0 0.0 0.00 0.00 0.00 67 1014.5
20260503193432 13 0 0.0 0.0 0.00 0.00 0.00 67 1014.5
20260503192934 13 0 0.0 0.0 0.00 0.00 0.00 66 1014.4
20260503191933 14 0 0.0 0.0 0.00 0.00 0.00 65 1014.4
20260503191432 14 0 0.0 0.0 0.00 0.00 0.00 65 1014.4
20260503190433 15 0 0.0 0.0 0.00 0.00 0.00 63 1014.4
20260503185934 15 0 0.0 0.0 0.00 0.00 0.00 62 1014.3
20260503184933 15 0 0.0 0.0 0.00 0.00 0.00 61 1014.2
20260503184433 16 0 0.0 0.0 0.00 0.00 0.00 59 1014.2
20260503183932 16 0 0.0 0.0 0.00 0.00 0.00 58 1014.2
20260503182933 16 0 0.0 0.0 0.00 0.00 0.00 57 1014.1
20260503182433 17 0 0.0 0.0 0.00 0.00 0.00 55 1014.1
20260503181933 17 0 0.0 0.0 0.00 0.00 0.00 54 1014.1
20260503181445 18 0 0.0 0.0 0.00 0.00 0.00 53 1014.1
20260503180932 18 0 0.0 0.0 0.00 0.00 0.00 52 1014.0
20260503180432 18 0 0.0 0.0 0.00 0.00 0.00 51 1013.9
20260503175933 19 0 0.0 0.0 0.00 0.00 0.00 50 1013.9
20260503175433 19 0 0.0 0.0 0.00 0.00 0.00 49 1013.9
20260503174933 19 0 0.0 0.0 0.00 0.00 0.00 50 1013.8
20260503174432 20 0 0.0 0.0 0.00 0.00 0.00 48 1013.8
20260503173933 20 0 0.0 0.0 0.00 0.00 0.00 47 1013.7
20260503173433 21 0 0.0 0.0 0.00 0.00 0.00 45 1013.7
20260503172933 21 0 0.0 0.0 0.00 0.00 0.00 45 1013.7